Regional Weather Roundup
Issued by NWS

Home | Current Version | Previous Version | Text Only | Print | Product List | Glossary Off
Versions: 1 2 3 4 5 6 7 8 9 10 11 12 13 14 15 16 17 18 19 20 21 22 23 24 25 26 27 28 29 30 31 32 33 34 35 36 37 38 39 40 41 42 43 44 45 46 47 48 49 50

000
ASUS43 KOAX 291602
RWRNE

WEATHER ROUNDUP FOR NEBRASKA
NATIONAL WEATHER SERVICE OMAHA NE
1100 AM CDT FRI JUL 29 2016

NOTES: SATELLITE DATA IS BEING USED TO AUGMENT CLOUD COVER ABOVE
       12000 FEET.
       "FAIR" INDICATES FEW OR NO CLOUDS BELOW 12,000 FEET WITH NO
       SIGNIFICANT WEATHER AND/OR OBSTRUCTIONS TO VISIBILITY.

  * THESE STATIONS DO NOT REPORT WEATHER SUCH AS RAIN...SNOW OR FOG.

NEZ001>004-019>022-054>056-291700-
NEBRASKA PANHANDLE

CITY           SKY/WX    TMP DP  RH WIND       PRES   REMARKS
SCOTTSBLUFF    SUNNY     73  60  63 VRB3      30.15S
ALLIANCE       SUNNY     73  59  61 VRB6      30.14F
CHADRON        SUNNY     73  57  57 NE7       30.11F
KIMBALL        PTSUNNY   73  58  59 SE7       30.21S
SIDNEY         SUNNY     75  56  51 VRB6      30.18F
$$

NEZ057>060-069>072-079>082-291700-
SOUTHWEST NEBRASKA

CITY           SKY/WX    TMP DP  RH WIND       PRES   REMARKS
NORTH PLATTE   SUNNY     73  64  73 E3        30.13F
IMPERIAL       MOSUNNY   72  62  71 E6        30.15S
LEXINGTON      MOSUNNY   71  64  79 CALM      30.12S
MCCOOK         MOSUNNY   73  64  73 VRB5      30.13F
OGALLALA       SUNNY     75  62  62 E6        30.14S
$$

NEZ005>010-023>029-035>040-094-291700-
NORTH CENTRAL NEBRASKA

CITY           SKY/WX    TMP DP  RH WIND       PRES   REMARKS
VALENTINE      PTSUNNY   68  59  73 SE3       30.14S
AINSWORTH      CLOUDY    66  63  89 CALM      30.15R
BROKEN BOW     CLOUDY    66  63  90 NE7       30.13S
O`NEILL        CLOUDY    71  59  66 NE5       30.13S
ORD            LGT RAIN  68  64  87 CALM      30.11S
THEDFORD       CLOUDY    66  63  89 CALM      30.16S
$$

NEZ041-046>049-061>064-073>077-083>087-291700-
SOUTH CENTRAL NEBRASKA

CITY           SKY/WX    TMP DP  RH WIND       PRES   REMARKS
GRAND ISLAND   PTSUNNY   73  64  73 E3        30.10F
AURORA         PTSUNNY   74  64  69 CALM      30.09S
HASTINGS       MOSUNNY   76  64  66 VRB3      30.10F
HEBRON         SUNNY     77  62  60 CALM      30.07S
HOLDREGE       SUNNY     73  64  74 CALM      30.11F
KEARNEY *      PTSUNNY   73  64  73 E3        30.12S
YORK           SUNNY     73  64  73 NE6       30.09S
$$

NEZ011>018-030>034-042>045-291700-
NORTHEAST NEBRASKA

CITY           SKY/WX    TMP DP  RH WIND       PRES   REMARKS
NORFOLK        CLOUDY    72  61  68 E6        30.10S
ALBION         CLOUDY    70  62  76 E5        30.11F
BLAIR          CLOUDY    73  63  70 CALM      30.08R
FREMONT        MOSUNNY   71  61  71 E5        30.09S
TEKAMAH        PTSUNNY   77  62  59 N8        30.07F
WAYNE          MOSUNNY   71  62  74 NE5       30.11R
$$

NEZ050>053-065>068-078-088>093-291700-
SOUTHEAST NEBRASKA

CITY           SKY/WX    TMP DP  RH WIND       PRES   REMARKS
LINCOLN        CLOUDY    73  67  81 VRB3      30.08F
OMAHA EPPLEY   CLOUDY    74  61  63 N7        30.07S
BEATRICE       SUNNY     77  63  61 NE7       30.06F
FALLS CITY     MOSUNNY   77  67  71 NE7       30.04S
NEBRASKA CITY  MOSUNNY   73  64  74 NE7       30.06F
PLATTSMOUTH    CLOUDY    70  64  80 CALM      30.07S
$$

NEZ044-045-051>053-067-291700-
OMAHA AREA

CITY           SKY/WX    TMP DP  RH WIND       PRES   REMARKS
OMAHA EPPLEY   CLOUDY    74  61  63 N7        30.07S
BLAIR          CLOUDY    73  63  70 CALM      30.08R
FREMONT        MOSUNNY   71  61  71 E5        30.09S
OFFUTT AFB     CLOUDY    71  62  72 N3        30.06S
PLATTSMOUTH    CLOUDY    70  64  80 CALM      30.07S
WAHOO          CLOUDY    73  65  76 CALM      30.08S
$$




USA.gov is the U.S. government's official web portal to all federal, state and local government web resources and services.